Flag for Germany Weather past 2 weeks in Meissen, Saxony, Germany

Now
54 °F

Passing clouds.


Feels Like: 52 °F
Forecast: 50 / 64 °F
Wind: 6 mph from Southwest

Location: Dresden-Klotzsche

Current Time: Sep 4, 2015 at 10:06:12 AM

Latest Report: Sep 4, 2015 at 9:20 AM


Visibility: N/A

Pressure: 29.95 "Hg

Humidity: 100%

Dew point: 54 °F

Location of MeissenLocation

Historic Weather in Meissen — Graph

°F

Meissen temperature yesterday

Maximum temperature yesterday: 66 °F (at 10:20 AM)
Minimum temperature yesterday: 54 °F (at 10:50 PM)
Average temperature yesterday: 58 °F

Past Weeks' High & Low Weather Summary

 TemperatureHumidityPressure
High91 °F (Aug 31, 1:50 PM)100% (Aug 20, 8:20 AM)30.30 "Hg (Aug 20, 8:20 AM)
Low50 °F (Aug 22, 5:50 AM)27% (Aug 22, 2:20 PM)29.71 "Hg (Sep 1, 4:20 PM)
Average67 °F67%30.02 "Hg
* Reported Aug 20 8:20 AM — Sep 4 8:50 AM, Meissen, Weather by CustomWeather, © 2015

Note: Actual official high and low records may vary slightly from our data, if they occured in-between our weather recording intervals... More about our weather records

Advertising

Meissen weather history for previous 24 hours

 ConditionsComfort  
Time TempWeatherWind HumidityBarometerVisibility
8:50 AM
Fri, Sep 4
54 °FPartly sunny.6 mph100%29.95 "Hg5 mi
8:20 AM54 °FPassing clouds.3 mph100%29.95 "HgN/A
7:50 AM52 °FSunny.5 mph100%29.95 "Hg10 mi
7:20 AM50 °FFog.6 mph100%29.95 "Hg1 mi
6:50 AM50 °FFog.7 mph100%29.95 "Hg0 mi
6:20 AM50 °FFog.3 mph100%29.92 "Hg4 mi
5:50 AM50 °FFog.3 mph100%29.92 "Hg4 mi
5:20 AM52 °FClear.5 mph100%29.92 "Hg5 mi
4:50 AM52 °FClear.2 mph100%29.92 "Hg6 mi
4:20 AM52 °FClear.2 mph100%29.95 "Hg4 mi
3:50 AM52 °FFog.3 mph100%29.95 "Hg2 mi
3:20 AM52 °FFog.6 mph100%29.95 "Hg3 mi
2:50 AM52 °FFog.5 mph100%29.95 "Hg1 mi
2:20 AM52 °FFog.2 mph100%29.95 "Hg0 mi
1:50 AM52 °FFog.3 mph100%29.95 "Hg5 mi
1:20 AM54 °FFog.2 mph100%29.95 "HgN/A
12:50 AM54 °FFog.No wind100%29.95 "HgN/A
12:20 AM54 °FFog.2 mph100%29.95 "HgN/A
11:20 PM
Thu, Sep 3
54 °FFog.1 mph100%29.95 "HgN/A
10:50 PM54 °FLight fog.3 mph100%29.95 "HgN/A
10:20 PM55 °FClear.5 mph94%29.95 "Hg10 mi
9:50 PM55 °FPassing clouds.6 mph100%29.95 "HgN/A
9:20 PM55 °FPassing clouds.2 mph100%29.95 "HgN/A
8:50 PM55 °FLight rain. Passing clouds.6 mph100%29.95 "HgN/A
8:20 PM55 °FPartly sunny.5 mph100%29.95 "HgN/A
7:50 PM55 °FPartly sunny.3 mph94%29.95 "HgN/A
7:20 PM55 °FPartly sunny.6 mph100%29.95 "HgN/A
6:50 PM55 °FSprinkles. Broken clouds.5 mph94%29.92 "Hg6 mi
6:20 PM55 °FRain showers. Broken clouds.2 mph94%29.95 "Hg3 mi
5:50 PM55 °FThunderstorms. Partly sunny.8 mph100%29.95 "Hg3 mi
5:20 PM57 °FRain showers. Partly sunny.7 mph94%29.95 "Hg2 mi
4:50 PM59 °FLight rain. Partly sunny.6 mph88%29.92 "HgN/A
4:20 PM59 °FLight rain. Partly sunny.3 mph88%29.95 "HgN/A
3:50 PM61 °FLight rain. Partly sunny.7 mph83%29.95 "HgN/A
3:20 PM61 °FScattered showers. Broken clouds.12 mph77%29.95 "HgN/A
2:50 PM63 °FPartly sunny.6 mph77%29.95 "HgN/A
2:20 PM63 °FPartly sunny.3 mph73%29.95 "HgN/A
1:50 PM63 °FPartly sunny.7 mph73%29.95 "HgN/A
1:20 PM63 °FPartly sunny.7 mph73%29.95 "HgN/A
12:50 PM63 °FBroken clouds.6 mph77%29.98 "HgN/A
12:20 PM61 °FPartly sunny.8 mph83%29.98 "HgN/A
11:50 AM61 °FSprinkles. Broken clouds.14 mph77%29.95 "HgN/A
11:20 AM66 °FPartly sunny.10 mph60%29.95 "HgN/A
10:50 AM66 °FBroken clouds.13 mph60%29.95 "HgN/A
10:20 AM66 °FSunny.12 mph64%29.95 "Hg10 mi
Weather by CustomWeather, © 2015

See weather overviewHow to use our weather pages